Location: Blackwall
(51.5097°N, 0.0016°W)
Time: 02:16:57
(UTC+00:00)

TSX-5 - Pass Details

Date: 15 May 2026
Orbit: 387 x 993 km, 68.9° (Epoch: 8 June)

Event Time Altitude Azimuth Distance (km) Brightness Sun altitude
Rises 22:23:28 0° 326° (NW) 2,291 8.6 -16.6°
Reaches altitude 10° 22:25:26 10° 328° (NNW) 1,446 7.2 -16.7°
Maximum altitude 22:28:34 82° 55° (NE) 425 3.2 -16.9°
Enters shadow 22:29:24 47° 137° (SE) 571 3.5 -16.9°
